User: anonymous   Login
Location: Ústí nad Labem
(50.6611°N, 14.0531°E)
Time: 19:00:17
(UTC+02:00)
Language:

Transit 2A Rocket - Orbit

View from above orbital plane
View from above orbital plane
View from above satellite
View from above satellite

Ground track
Ground track

The orbit data is extracted from the following two-line orbital elements,

1    47U 60007C   24114.04045709  .00002044  00000-0  46744-3 0  9993
2    47  66.6682 354.2671 0225002 352.4403   7.3326 14.43490220337842
Epoch (UTC): 23 April 2024 00:58:15
Eccentricity: 0.0225002
inclination: 66.6682°
perigee height: 586 km
apogee height: 907 km
right ascension of ascending node: 354.2671°
argument of perigee: 352.4403°
revolutions per day: 14.43490220
mean anomaly at epoch: 7.3326°
orbit number at epoch: 33784

The dashed part of the orbit path shows where the satellite is in the earth's shadow,  

DLR